Meteo Giornale » Osservazioni meteo Italia » Roma-Ciampino

ore: 02:50 - Osservazioni Meteo Roma-Ciampino
Lat. 41° 47' N Lon. 12° 35' E Alt. 129 metri s.l.m.

sereno Europe/Rome

24 °C

Sereno

Temp. 24 Ore

19 °C

33 °C

Ovest

9.3 Km/h

Dew point 23 °C

Umidità 94 %

Visibilità  10 Km

Il sole sorge alle ore 06:06

Il sole tramonta alle ore 20:24

Data e Ora Cielo e Fenomeni T °C DP °C Um. % Pres. hPa Vis. km Vento km/h
Oggi h: 02:50 sereno Sereno 24 23 94 1010 10 O 9.3
Oggi h: 02:20 sereno Sereno 25 24 94 1010 10 O/SO 9.3
Oggi h: 01:50 nuvoloso Nuvoloso 25 24 94 1010 10 O/SO 9.3
Oggi h: 01:20 molto_nuvoloso Molto Nuvoloso 25 24 94 1010 10 SO 7.4
Oggi h: 00:50 sereno Sereno 26 24 88 1011 10 S 13
Oggi h: 00:20 nuvoloso Nuvoloso 26 24 88 1011 10 S/SO 13
Ieri h: 23:50 molto_nuvoloso Molto Nuvoloso 26 24 88 1011 10 S/SO 13
Ieri h: 23:20 molto_nuvoloso Molto Nuvoloso 26 24 88 1011 10 S/SO 14.8
Ieri h: 22:50 nuvoloso Nuvoloso 26 24 88 1011 10 SO 14.8
Ieri h: 22:20 nuvoloso Nuvoloso 26 24 88 1011 10 SO 14.8
Ieri h: 21:50 nuvoloso Nuvoloso 26 24 88 1011 10 S/SO 18.5
Ieri h: 21:20 nuvoloso Nuvoloso 27 23 78 1011 10 SO 18.5
Ieri h: 20:50 nuvoloso Nuvoloso 27 23 78 1010 10 S/SO 22.2
Ieri h: 20:20 nuvoloso Nuvoloso 27 23 78 1010 10 S/SO 24
Ieri h: 19:50 poco_nuvoloso Poco Nuvoloso 28 22 69 1010 10 S/SO 25.9
Ieri h: 19:20 sereno Sereno 29 21 62 1010 10 S/SO 20.3
Ieri h: 18:50 sereno Sereno 30 20 55 1010 10 SO 24
Ieri h: 18:20 sereno Sereno 30 20 55 1010 10 S/SO 24
Ieri h: 17:50 sereno Sereno 31 18 45 1010 10 S/SO 22.2
Ieri h: 17:20 sereno Sereno 32 16 38 1010 10 S/SO 24
Ieri h: 16:50 sereno Sereno 32 15 35 1011 10 S/SO 24
Ieri h: 16:20 sereno Sereno 33 13 29 1011 10 S 18.5
Ieri h: 15:50 sereno Sereno 33 12 27 1011 10 S 22.2
Ieri h: 15:20 sereno Sereno 33 11 26 1012 10 S/SO 22.2
Ieri h: 14:50 sereno Sereno 33 12 27 1012 10 S 18.5
Ieri h: 14:20 sereno Sereno 33 12 27 1012 10 S 20.3
Ieri h: 13:50 sereno Sereno 33 13 29 1012 10 SO 20.3
Ieri h: 13:20 sereno Sereno 33 12 27 1013 10 SO 20.3
Ieri h: 11:50 sereno Sereno 33 10 24 1014 10 N 9.3
Ieri h: 11:20 sereno Sereno 31 13 33 1014 10 E/NE 7.4
Ieri h: 10:50 sereno Sereno 29 13 37 1014 10 N 5.5
Ieri h: 10:20 sereno Sereno 28 14 42 1014 10 N 3.7
Ieri h: 09:50 sereno Sereno 27 15 47 1014 10 N 3.7
Ieri h: 09:20 sereno Sereno 25 15 53 1014 10 N 5.5
Ieri h: 08:50 sereno Sereno 24 16 60 1014 10 N 5.5
Ieri h: 08:20 sereno Sereno 23 16 64 1014 10 N 3.7
Ieri h: 07:50 sereno Sereno 22 16 68 1014 10 N 1.8
Ieri h: 07:20 sereno Sereno 21 16 73 1014 10 N 3.7
Ieri h: 06:50 sereno Sereno 20 16 77 1014 10 N 3.7
Ieri h: 06:20 poco_nuvoloso Poco Nuvoloso 19 15 77 1014 10 N 5.5
Ieri h: 05:50 nuvoloso Nuvoloso 20 15 72 1014 10 N 3.7
Ieri h: 05:20 sereno Sereno 20 13 64 1014 10 N 3.7
Ieri h: 04:50 sereno Sereno 20 16 77 1014 10 N 3.7
Ieri h: 04:20 sereno Sereno 20 16 77 1014 10 N 5.5
Ieri h: 03:50 sereno Sereno 21 16 73 1015 10 N 5.5